This demonstration page uses our WeatherBlox Daily Observations layout. Learn more.

Left ArrowRight Arrow

Hourly Observations for May 22, 2022

Temp ( °F °C ) Dew Point ( °F °C ) Humidity (%) Winds ( mph kmh ) Pressure ( in mb ) Visibility ( mi km ) Precip ( " mm )
12:52 am 00:52 Clear 52 11.1 48 8.9 86 86 N 12 19 30.19 1022 10 16 0.00 0.00
1:52 am 01:52 Clear 50 10 46 7.8 86 86 N 13 20 30.21 1023 10 16 0.00 0.00
2:52 am 02:52 Clear 49 9.4 45 7.2 86 86 N 8 13 30.25 1024 10 16 0.00 0.00
3:52 am 03:52 Clear 48 8.9 44 6.7 86 86 N 8 13 30.25 1025 10 16 0.00 0.00
4:52 am 04:52 Clear 47 8.3 43 6.1 86 86 N 9 15 30.27 1025 10 16 0.00 0.00
5:52 am 05:52 Clear 46 7.8 43 6.1 89 89 N 8 13 30.28 1026 10 16 0.00 0.00
6:52 am 06:52 Sunny 47 8.3 43 6.1 86 86 NE 7 11 30.29 1026 10 16 0.00 0.00
7:52 am 07:52 Sunny 49 9.4 43 6.1 80 80 N 9 15 30.34 1028 10 16 0.00 0.00
8:52 am 08:52 Sunny 50 10 42 5.6 74 74 NNE 10 17 30.35 1028 10 16 0.00 0.00
9:52 am 09:52 Mostly Cloudy 52 11.1 42 5.6 69 69 NE 12 19 30.35 1028 10 16 0.00 0.00
10:52 am 10:52 Sunny 55 12.8 42 5.6 62 62 NE 13 20 30.35 1028 10 16 0.00 0.00
11:52 am 11:52 Mostly Cloudy 56 13.3 42 5.6 60 60 NE 9 15 30.35 1028 10 16 0.00 0.00
12:52 pm 12:52 Cloudy 56 13.3 43 6.1 62 62 NNE 12 19 30.34 1028 10 16 0.00 0.00
1:52 pm 13:52 Mostly Cloudy 59 15 44 6.7 58 58 NNE 10 17 30.32 1027 10 16 0.00 0.00
2:52 pm 14:52 Cloudy 59 15 42 5.6 54 54 N 12 19 30.31 1027 10 16 0.00 0.00
3:52 pm 15:52 Cloudy 59 15 41 5 51 51 NE 12 19 30.29 1026 10 16 0.00 0.00
4:52 pm 16:52 Cloudy 59 15 41 5 51 51 NE 14 22 30.29 1026 10 16 0.00 0.00
5:52 pm 17:52 Cloudy 59 15 41 5 51 51 NNE 12 19 30.28 1025 10 16 0.00 0.00
6:52 pm 18:52 Cloudy 58 14.4 41 5 53 53 NE 13 20 30.27 1025 10 16 0.00 0.00
7:52 pm 19:52 Cloudy 57 13.9 42 5.6 58 58 NE 8 13 30.27 1025 10 16 0.00 0.00
8:52 pm 20:52 Partly Cloudy 55 12.8 43 6.1 64 64 ENE 6 9 30.27 1025 10 16 0.00 0.00
9:52 pm 21:52 Partly Cloudy 53 11.7 44 6.7 72 72 ENE 5 7 30.28 1026 10 16 0.00 0.00
10:52 pm 22:52 Clear 51 10.6 44 6.7 77 77 NE 6 9 30.29 1026 10 16 0.00 0.00
11:52 pm 23:52 Clear 50 10 44 6.7 80 80 NE 3 6 30.28 1026 10 16 0.00 0.00

Powered by AerisWeather